contact:dominique.lefevre@mio.osupytheas.fr, maurice.libes@osupytheas.fr, didier.mallarino@osupytheas.fr
Project:EMSO http://www.emso-fr.org/EMSO-France
Depth: 2436.0 m
Title:EMSO Ligure Ouest : Data MII capteur AQUADOPP
Date,Latitude,Longitude,X_East,Y_North,Z_Up,Amplitude_X,Amplitude_Y,Amplitude_Z,Batterie,SoundSpeed,Heading,Pitch,Roll,Pressure,TIS,Speed,Direction
, degrees North, degrees East, m.s-1, m.s-1,m.s-1, 1, 1, 1, Volt, m.s-1, degree, degree, degree, dbar, degree_C, m.s-1, degree
2020-08-10T00:04:03,42.805,6.029,-0.055,0.012,-0.076,103.0,110.0,100.0,13.3,1505.3,324.8,-0.8,1.8,2470.496,13.32,0.056,282.3
2020-08-10T00:07:03,42.805,6.029,-0.041,0.02,-0.022,103.0,110.0,101.0,13.3,1505.3,327.2,-0.7,1.8,2470.479,13.33,0.045,296.0
2020-08-10T00:10:03,42.805,6.029,0.008,0.017,0.003,103.0,108.0,101.0,13.4,1505.3,328.1,-0.7,1.8,2470.493,13.33,0.018,25.2
2020-08-10T00:13:03,42.805,6.029,-0.035,0.014,-0.042,104.0,109.0,101.0,13.4,1505.3,327.3,-0.7,1.8,2470.431,13.33,0.037,291.8
2020-08-10T00:16:03,42.805,6.029,-0.019,0.018,-0.035,104.0,110.0,102.0,13.4,1505.3,326.9,-0.7,1.8,2470.448,13.33,0.026,313.5
2020-08-10T00:19:03,42.805,6.029,-0.037,0.008,-0.054,104.0,109.0,102.0,13.4,1505.4,323.0,-0.7,1.8,2470.436,13.34,0.037,282.2
2020-08-10T00:22:03,42.805,6.029,-0.04,0.003,-0.041,104.0,109.0,101.0,13.4,1505.4,323.2,-0.6,1.8,2470.437,13.34,0.04,274.3
2020-08-10T00:25:03,42.805,6.029,-0.038,0.003,-0.066,104.0,108.0,101.0,13.3,1505.4,325.4,-0.7,1.8,2470.456,13.34,0.038,274.5
2020-08-10T00:28:03,42.805,6.029,-0.04,0.015,-0.049,104.0,108.0,101.0,13.3,1505.4,326.5,-0.7,1.8,2470.462,13.34,0.042,290.6
2020-08-10T00:31:03,42.805,6.029,-0.015,-0.001,-0.06,104.0,108.0,103.0,13.4,1505.4,323.0,-0.7,1.9,2470.407,13.34,0.015,266.2
2020-08-10T00:34:03,42.805,6.029,-0.026,0.007,-0.042,104.0,110.0,101.0,13.3,1505.4,326.9,-0.7,1.8,2470.457,13.34,0.026,285.1
2020-08-10T00:37:03,42.805,6.029,-0.006,0.007,-0.03,103.0,108.0,101.0,13.4,1505.4,328.3,-0.7,1.8,2470.477,13.34,0.009,319.4
2020-08-10T00:40:03,42.805,6.029,-0.021,0.012,-0.022,105.0,109.0,102.0,13.4,1505.4,326.3,-0.7,1.8,2470.433,13.34,0.024,299.7
2020-08-10T00:43:03,42.805,6.029,-0.031,0.022,-0.029,105.0,108.0,102.0,13.4,1505.4,328.7,-0.7,1.8,2470.461,13.34,0.038,305.4
2020-08-10T00:46:03,42.805,6.029,0.019,0.037,0.014,104.0,109.0,102.0,13.4,1505.4,326.7,-0.7,1.8,2470.427,13.34,0.041,27.2
2020-08-10T00:49:03,42.805,6.029,0.009,0.027,-0.007,104.0,108.0,100.0,13.4,1505.4,327.6,-0.7,1.8,2470.441,13.34,0.028,18.4
2020-08-10T00:52:03,42.805,6.029,0.025,0.025,0.007,105.0,108.0,101.0,13.4,1505.3,327.8,-0.7,1.8,2470.446,13.33,0.035,45.0
2020-08-10T00:55:03,42.805,6.029,0.024,0.01,0.046,105.0,108.0,102.0,13.4,1505.3,324.9,-0.7,1.8,2470.406,13.33,0.026,67.4
2020-08-10T00:58:03,42.805,6.029,0.018,0.014,0.007,103.0,110.0,102.0,13.4,1505.3,326.4,-0.7,1.9,2470.434,13.33,0.022,52.1
2020-08-10T01:04:03,42.805,6.029,-0.003,0.007,-0.022,106.0,110.0,102.0,13.4,1505.3,327.5,-0.7,1.8,2470.452,13.31,0.007,336.8
2020-08-10T01:07:03,42.805,6.029,0.007,0.024,0.017,104.0,109.0,102.0,13.4,1505.3,327.7,-0.7,1.8,2470.467,13.32,0.025,16.3
2020-08-10T01:10:03,42.805,6.029,0.041,0.025,0.015,104.0,109.0,101.0,13.3,1505.3,327.4,-0.7,1.9,2470.443,13.32,0.048,58.6
2020-08-10T01:13:03,42.805,6.029,0.02,0.027,0.015,104.0,109.0,101.0,13.3,1505.3,325.0,-0.7,1.8,2470.426,13.33,0.033,36.5
2020-08-10T01:16:03,42.805,6.029,0.002,0.012,-0.007,103.0,110.0,100.0,13.4,1505.3,324.3,-0.7,1.8,2470.422,13.33,0.012,9.5
2020-08-10T01:19:03,42.805,6.029,-0.016,0.026,-0.028,104.0,110.0,101.0,13.4,1505.3,326.5,-0.7,1.8,2470.463,13.33,0.03,328.4
2020-08-10T01:22:03,42.805,6.029,0.005,0.016,-0.009,103.0,109.0,102.0,13.4,1505.3,327.8,-0.7,1.8,2470.431,13.33,0.016,17.4
2020-08-10T01:25:03,42.805,6.029,0.006,0.024,0.0,103.0,109.0,100.0,13.4,1505.3,326.9,-0.7,1.8,2470.396,13.33,0.024,14.0
2020-08-10T01:28:03,42.805,6.029,0.003,0.025,-0.011,103.0,109.0,102.0,13.4,1505.3,328.1,-0.7,1.8,2470.389,13.33,0.025,6.8
2020-08-10T01:31:03,42.805,6.029,-0.017,0.015,-0.032,103.0,110.0,102.0,13.3,1505.3,324.5,-0.7,1.8,2470.428,13.33,0.022,311.4
2020-08-10T01:34:03,42.805,6.029,0.014,0.036,0.023,103.0,108.0,102.0,13.4,1505.3,323.4,-0.7,1.8,2470.421,13.33,0.038,21.2
2020-08-10T01:37:03,42.805,6.029,-0.003,0.01,-0.041,105.0,109.0,101.0,13.4,1505.3,327.7,-0.7,1.8,2470.456,13.33,0.01,343.3
2020-08-10T01:40:03,42.805,6.029,-0.029,0.008,-0.047,104.0,110.0,101.0,13.4,1505.3,323.8,-0.7,1.8,2470.404,13.33,0.03,285.4
2020-08-10T01:43:03,42.805,6.029,-0.014,0.015,-0.044,104.0,110.0,102.0,13.4,1505.3,324.2,-0.7,1.8,2470.41,13.33,0.02,317.0
2020-08-10T01:46:03,42.805,6.029,-0.015,0.008,-0.065,103.0,109.0,102.0,13.4,1505.3,324.7,-0.7,1.8,2470.416,13.33,0.017,298.1
2020-08-10T01:49:03,42.805,6.029,0.013,0.02,0.026,104.0,110.0,102.0,13.3,1505.3,322.8,-0.7,1.8,2470.366,13.33,0.023,33.0
2020-08-10T01:52:03,42.805,6.029,0.016,0.008,0.015,102.0,111.0,101.0,13.4,1505.3,326.4,-0.7,1.8,2470.423,13.33,0.017,63.4
2020-08-10T01:55:03,42.805,6.029,-0.002,0.02,-0.026,104.0,110.0,102.0,13.4,1505.3,324.1,-0.7,1.8,2470.403,13.33,0.02,354.3
2020-08-10T01:58:03,42.805,6.029,-0.004,0.007,-0.041,105.0,110.0,102.0,13.4,1505.3,327.8,-0.7,1.8,2470.376,13.33,0.008,330.3
2020-08-10T02:04:03,42.805,6.029,-0.01,0.001,-0.039,104.0,109.0,102.0,13.4,1505.3,326.9,-0.7,1.8,2470.447,13.31,0.01,275.7
2020-08-10T02:07:03,42.805,6.029,-0.013,0.018,-0.017,104.0,109.0,102.0,13.4,1505.3,324.2,-0.7,1.8,2470.458,13.31,0.022,324.2
2020-08-10T02:10:03,42.805,6.029,-0.014,0.007,-0.013,104.0,109.0,101.0,13.3,1505.3,326.4,-0.7,1.9,2470.432,13.32,0.015,296.6
2020-08-10T02:13:03,42.805,6.029,-0.029,0.017,-0.044,105.0,108.0,103.0,13.4,1505.3,323.5,-0.7,1.8,2470.402,13.32,0.033,300.4
2020-08-10T02:16:03,42.805,6.029,0.019,0.016,-0.002,104.0,110.0,101.0,13.3,1505.3,328.3,-0.7,1.8,2470.412,13.32,0.024,49.9
2020-08-10T02:19:03,42.805,6.029,0.021,0.014,-0.029,103.0,110.0,101.0,13.3,1505.3,325.5,-0.7,1.9,2470.378,13.32,0.025,56.3
2020-08-10T02:22:03,42.805,6.029,0.026,0.019,0.0,102.0,111.0,102.0,13.4,1505.3,325.7,-0.7,1.8,2470.409,13.32,0.032,53.8
2020-08-10T02:25:03,42.805,6.029,-0.007,-0.001,-0.037,103.0,111.0,101.0,13.4,1505.3,323.6,-0.7,1.9,2470.416,13.32,0.007,261.9
2020-08-10T02:28:03,42.805,6.029,-0.004,0.015,-0.029,103.0,110.0,101.0,13.3,1505.3,326.6,-0.7,1.8,2470.413,13.32,0.015,345.1
2020-08-10T02:31:03,42.805,6.029,0.021,0.006,0.0,105.0,110.0,101.0,13.4,1505.3,324.4,-0.7,1.9,2470.375,13.32,0.021,74.1
2020-08-10T02:34:03,42.805,6.029,0.004,0.013,-0.023,104.0,109.0,102.0,13.4,1505.3,327.1,-0.7,1.8,2470.36,13.32,0.013,17.1
2020-08-10T02:37:03,42.805,6.029,0.025,0.016,0.003,103.0,109.0,101.0,13.4,1505.3,326.8,-0.7,1.9,2470.368,13.32,0.029,57.4
2020-08-10T02:40:03,42.805,6.029,-0.012,0.02,-0.015,103.0,109.0,101.0,13.4,1505.3,327.3,-0.7,1.8,2470.372,13.32,0.023,329.0
2020-08-10T02:43:03,42.805,6.029,0.009,0.022,-0.026,103.0,109.0,103.0,13.4,1505.3,323.2,-0.7,1.8,2470.381,13.33,0.023,22.2
2020-08-10T02:46:03,42.805,6.029,-0.021,0.026,-0.043,103.0,109.0,101.0,13.3,1505.3,325.9,-0.7,1.8,2470.393,13.33,0.033,321.1
2020-08-10T02:49:03,42.805,6.029,0.028,0.034,-0.007,104.0,109.0,101.0,13.4,1505.3,325.0,-0.7,1.8,2470.379,13.33,0.044,39.5
2020-08-10T02:52:03,42.805,6.029,0.024,0.012,0.022,103.0,109.0,101.0,13.4,1505.3,326.0,-0.7,1.8,2470.368,13.33,0.026,63.4
2020-08-10T02:55:03,42.805,6.029,-0.003,0.004,-0.036,103.0,110.0,101.0,13.3,1505.3,328.7,-0.7,1.8,2470.343,13.33,0.005,323.1
2020-08-10T02:58:03,42.805,6.029,0.005,0.012,-0.025,104.0,110.0,102.0,13.3,1505.3,326.6,-0.7,1.8,2470.333,13.32,0.013,22.6
2020-08-10T03:04:03,42.805,6.029,-0.013,0.014,-0.021,103.0,111.0,100.0,13.3,1505.2,327.5,-0.7,1.9,2470.398,13.3,0.019,317.1
2020-08-10T03:07:03,42.805,6.029,-0.014,0.01,-0.02,103.0,110.0,101.0,13.4,1505.3,326.4,-0.7,1.8,2470.423,13.31,0.017,305.5
2020-08-10T03:10:03,42.805,6.029,0.024,0.003,0.016,103.0,111.0,100.0,13.4,1505.3,325.2,-0.7,1.8,2470.395,13.32,0.024,82.9
2020-08-10T03:13:03,42.805,6.029,-0.004,0.002,-0.018,103.0,111.0,101.0,13.4,1505.3,326.2,-0.7,1.9,2470.41,13.32,0.004,296.6
2020-08-10T03:16:03,42.805,6.029,-0.001,0.004,-0.027,104.0,111.0,101.0,13.4,1505.3,323.9,-0.7,1.9,2470.375,13.32,0.004,346.0
2020-08-10T03:19:03,42.805,6.029,0.015,0.003,-0.024,103.0,113.0,101.0,13.4,1505.3,324.5,-0.7,1.8,2470.373,13.32,0.015,78.7
2020-08-10T03:22:03,42.805,6.029,0.0,0.024,-0.025,103.0,112.0,101.0,13.4,1505.3,327.6,-0.7,1.8,2470.359,13.32,0.024,0.0
2020-08-10T03:25:03,42.805,6.029,0.017,0.014,-0.038,104.0,108.0,100.0,13.3,1505.3,326.1,-0.7,1.8,2470.339,13.32,0.022,50.5
2020-08-10T03:28:03,42.805,6.029,0.02,0.02,0.019,104.0,109.0,101.0,13.4,1505.3,326.5,-0.7,1.8,2470.352,13.32,0.028,45.0
2020-08-10T03:31:03,42.805,6.029,0.02,0.0,0.016,104.0,109.0,102.0,13.3,1505.3,327.7,-0.7,1.8,2470.403,13.32,0.02,90.0
2020-08-10T03:34:03,42.805,6.029,0.017,0.017,-0.007,103.0,110.0,101.0,13.4,1505.3,326.1,-0.7,1.9,2470.388,13.32,0.024,45.0
2020-08-10T03:37:03,42.805,6.029,0.024,0.009,0.001,102.0,109.0,101.0,13.4,1505.3,325.0,-0.7,1.8,2470.375,13.32,0.025,69.4
2020-08-10T03:40:03,42.805,6.029,-0.003,0.012,-0.014,103.0,109.0,101.0,13.4,1505.3,326.2,-0.7,1.8,2470.378,13.32,0.012,346.0
2020-08-10T03:43:03,42.805,6.029,0.018,0.012,-0.003,103.0,109.0,101.0,13.4,1505.3,326.6,-0.7,1.8,2470.367,13.32,0.021,56.3
2020-08-10T03:46:03,42.805,6.029,0.015,0.01,-0.053,103.0,108.0,100.0,13.4,1505.3,326.8,-0.7,1.8,2470.355,13.32,0.018,56.3
2020-08-10T03:49:03,42.805,6.029,-0.023,0.008,-0.044,103.0,110.0,100.0,13.4,1505.3,327.1,-0.7,1.8,2470.322,13.33,0.024,289.2
2020-08-10T03:52:03,42.805,6.029,-0.012,0.016,-0.027,103.0,111.0,101.0,13.4,1505.3,328.2,-0.7,1.9,2470.331,13.32,0.02,323.1
2020-08-10T03:55:03,42.805,6.029,-0.005,0.008,-0.023,103.0,109.0,100.0,13.3,1505.3,324.1,-0.7,1.8,2470.356,13.32,0.009,328.0
2020-08-10T03:58:03,42.805,6.029,0.001,0.008,-0.004,103.0,111.0,101.0,13.4,1505.3,328.6,-0.7,1.8,2470.354,13.32,0.008,7.1
2020-08-10T04:04:03,42.805,6.029,0.021,0.0,0.01,102.0,109.0,101.0,13.4,1505.2,322.8,-0.8,1.8,2470.395,13.3,0.021,90.0
2020-08-10T04:07:03,42.805,6.029,-0.008,0.018,-0.036,103.0,109.0,101.0,13.4,1505.3,328.4,-0.7,1.8,2470.394,13.31,0.019,336.0
2020-08-10T04:10:03,42.805,6.029,0.028,0.003,-0.047,104.0,111.0,101.0,13.4,1505.3,324.7,-0.7,1.8,2470.391,13.32,0.028,83.9
2020-08-10T04:13:03,42.805,6.029,-0.022,0.025,-0.052,104.0,110.0,102.0,13.3,1505.3,326.4,-0.7,1.8,2470.38,13.32,0.033,318.7
2020-08-10T04:16:03,42.805,6.029,-0.002,0.016,-0.012,104.0,110.0,101.0,13.3,1505.3,326.8,-0.7,1.8,2470.385,13.32,0.016,352.9
2020-08-10T04:19:03,42.805,6.029,0.013,0.005,0.005,103.0,110.0,101.0,13.4,1505.3,326.3,-0.7,1.9,2470.344,13.32,0.013,69.0
2020-08-10T04:22:03,42.805,6.029,0.004,0.02,-0.017,103.0,109.0,102.0,13.4,1505.3,326.5,-0.7,1.8,2470.34,13.32,0.02,11.3
2020-08-10T04:25:03,42.805,6.029,0.028,0.019,0.004,105.0,112.0,101.0,13.4,1505.3,324.4,-0.7,1.8,2470.321,13.32,0.033,55.8
2020-08-10T04:28:03,42.805,6.029,0.001,0.018,-0.059,104.0,110.0,101.0,13.4,1505.3,327.0,-0.7,1.8,2470.331,13.32,0.018,3.2
2020-08-10T04:31:03,42.805,6.029,-0.009,0.006,-0.046,104.0,110.0,100.0,13.4,1505.3,328.0,-0.7,1.8,2470.343,13.32,0.01,303.7
2020-08-10T04:34:03,42.805,6.029,0.02,0.007,-0.023,103.0,111.0,100.0,13.4,1505.3,325.7,-0.7,1.8,2470.343,13.32,0.021,70.7
2020-08-10T04:37:03,42.805,6.029,0.032,0.006,-0.005,103.0,110.0,100.0,13.4,1505.3,325.9,-0.7,1.9,2470.374,13.32,0.032,79.4
2020-08-10T04:40:03,42.805,6.029,-0.009,0.017,-0.018,102.0,111.0,101.0,13.4,1505.3,325.1,-0.7,1.8,2470.38,13.32,0.019,332.1
2020-08-10T04:43:03,42.805,6.029,-0.021,0.016,-0.06,102.0,110.0,101.0,13.4,1505.3,326.5,-0.7,1.8,2470.348,13.32,0.026,307.3
2020-08-10T04:46:03,42.805,6.029,0.032,0.023,-0.001,103.0,108.0,101.0,13.4,1505.3,326.4,-0.7,1.8,2470.338,13.32,0.039,54.3
2020-08-10T04:49:03,42.805,6.029,-0.004,-0.003,-0.034,103.0,110.0,100.0,13.4,1505.3,326.7,-0.7,1.8,2470.317,13.32,0.005,233.1
2020-08-10T04:52:03,42.805,6.029,0.03,0.028,-0.018,103.0,109.0,102.0,13.4,1505.3,323.3,-0.7,1.9,2470.346,13.32,0.041,47.0
2020-08-10T04:55:03,42.805,6.029,0.008,0.02,-0.019,103.0,108.0,101.0,13.3,1505.3,326.9,-0.7,1.9,2470.362,13.32,0.021,21.8
2020-08-10T04:58:03,42.805,6.029,0.034,0.009,0.005,102.0,109.0,100.0,13.4,1505.3,327.4,-0.7,1.8,2470.335,13.32,0.035,75.2
2020-08-10T05:04:03,42.805,6.029,0.035,0.006,0.0,103.0,108.0,100.0,13.3,1505.2,327.9,-0.8,1.8,2470.432,13.3,0.035,80.3
2020-08-10T05:07:03,42.805,6.029,-0.001,-0.002,-0.031,104.0,111.0,101.0,13.4,1505.3,327.1,-0.7,1.8,2470.374,13.31,0.002,206.6
2020-08-10T05:10:03,42.805,6.029,-0.022,0.004,-0.082,105.0,109.0,99.0,13.3,1505.3,327.8,-0.7,1.9,2470.356,13.32,0.022,280.3
2020-08-10T05:13:03,42.805,6.029,-0.02,0.009,-0.058,105.0,109.0,101.0,13.4,1505.3,326.6,-0.7,1.8,2470.344,13.32,0.021,294.2
2020-08-10T05:16:03,42.805,6.029,-0.001,0.0,-0.039,103.0,108.0,102.0,13.4,1505.3,328.0,-0.7,1.8,2470.381,13.32,0.001,270.0
2020-08-10T05:19:03,42.805,6.029,0.028,0.004,-0.015,103.0,109.0,100.0,13.4,1505.3,326.9,-0.7,1.9,2470.354,13.32,0.028,81.9
2020-08-10T05:22:03,42.805,6.029,0.005,0.009,-0.031,104.0,110.0,101.0,13.4,1505.3,327.5,-0.7,1.8,2470.365,13.32,0.01,29.1
2020-08-10T05:25:03,42.805,6.029,0.015,0.003,-0.019,104.0,110.0,102.0,13.4,1505.3,326.9,-0.7,1.9,2470.354,13.32,0.015,78.7
2020-08-10T05:28:03,42.805,6.029,-0.008,0.006,-0.019,104.0,112.0,101.0,13.3,1505.3,324.9,-0.7,1.8,2470.341,13.32,0.01,306.9
2020-08-10T05:31:03,42.805,6.029,0.023,-0.001,-0.038,104.0,111.0,101.0,13.4,1505.3,327.1,-0.7,1.9,2470.307,13.32,0.023,92.5
2020-08-10T05:34:03,42.805,6.029,0.006,0.005,-0.01,104.0,111.0,101.0,13.4,1505.3,325.6,-0.7,1.8,2470.34,13.32,0.007,50.2
2020-08-10T05:37:03,42.805,6.029,-0.007,0.016,-0.024,104.0,109.0,101.0,13.4,1505.3,323.0,-0.7,1.8,2470.291,13.32,0.017,336.4
2020-08-10T05:40:03,42.805,6.029,0.01,0.019,0.007,103.0,108.0,101.0,13.4,1505.3,324.4,-0.7,1.8,2470.353,13.32,0.021,27.8
2020-08-10T05:43:03,42.805,6.029,0.016,0.005,-0.036,104.0,111.0,101.0,13.4,1505.3,326.3,-0.7,1.8,2470.331,13.32,0.016,72.6
2020-08-10T05:46:03,42.805,6.029,0.004,0.026,-0.02,105.0,109.0,102.0,13.4,1505.3,324.7,-0.7,1.9,2470.348,13.32,0.026,8.7
2020-08-10T05:49:03,42.805,6.029,0.02,0.023,-0.039,105.0,109.0,100.0,13.4,1505.3,327.1,-0.7,1.8,2470.341,13.32,0.03,41.0
2020-08-10T05:52:03,42.805,6.029,0.021,-0.007,0.001,104.0,110.0,101.0,13.3,1505.3,326.7,-0.7,1.8,2470.313,13.32,0.022,108.4
2020-08-10T05:55:03,42.805,6.029,0.002,0.005,0.0,104.0,112.0,100.0,13.3,1505.3,327.0,-0.7,1.8,2470.343,13.32,0.005,21.8
2020-08-10T05:58:03,42.805,6.029,0.019,0.002,-0.025,103.0,112.0,101.0,13.4,1505.3,323.5,-0.7,1.8,2470.373,13.32,0.019,84.0
2020-08-10T06:04:03,42.805,6.029,0.003,-0.002,-0.002,104.0,109.0,101.0,13.3,1505.2,327.9,-0.8,1.8,2470.371,13.3,0.003,123.7
2020-08-10T06:07:03,42.805,6.029,0.026,0.009,-0.03,103.0,111.0,101.0,13.4,1505.3,327.7,-0.7,1.8,2470.333,13.31,0.027,70.9
2020-08-10T06:10:03,42.805,6.029,-0.007,0.008,-0.029,103.0,108.0,101.0,13.3,1505.3,323.8,-0.7,1.8,2470.368,13.32,0.01,318.8
2020-08-10T06:13:03,42.805,6.029,-0.016,0.006,-0.055,104.0,108.0,102.0,13.4,1505.3,326.4,-0.7,1.8,2470.335,13.32,0.017,290.6
2020-08-10T06:16:03,42.805,6.029,0.002,-0.004,-0.047,103.0,109.0,101.0,13.4,1505.3,326.5,-0.7,1.8,2470.374,13.32,0.004,153.4
2020-08-10T06:19:03,42.805,6.029,0.003,0.01,-0.03,105.0,107.0,101.0,13.4,1505.3,326.8,-0.7,1.8,2470.312,13.32,0.01,16.7
2020-08-10T06:22:03,42.805,6.029,0.036,-0.017,0.011,105.0,109.0,100.0,13.4,1505.3,328.1,-0.7,1.8,2470.356,13.32,0.039,115.3
2020-08-10T06:25:03,42.805,6.029,0.021,0.011,0.008,104.0,111.0,100.0,13.3,1505.3,323.3,-0.7,1.8,2470.389,13.32,0.023,62.4
2020-08-10T06:28:03,42.805,6.029,0.028,0.007,0.008,105.0,107.0,101.0,13.4,1505.3,326.6,-0.7,1.8,2470.367,13.32,0.028,76.0
2020-08-10T06:31:03,42.805,6.029,-0.017,0.01,-0.04,105.0,106.0,102.0,13.3,1505.3,324.1,-0.7,1.8,2470.341,13.32,0.019,300.5
2020-08-10T06:34:03,42.805,6.029,0.009,-0.004,-0.049,105.0,109.0,100.0,13.3,1505.3,325.8,-0.7,1.8,2470.347,13.32,0.009,114.0
2020-08-10T06:37:03,42.805,6.029,0.015,-0.002,-0.04,103.0,109.0,102.0,13.4,1505.3,326.0,-0.7,1.8,2470.336,13.32,0.015,97.6
2020-08-10T06:40:03,42.805,6.029,0.065,0.0,0.024,104.0,107.0,101.0,13.4,1505.3,325.9,-0.7,1.8,2470.345,13.33,0.064,90.0
2020-08-10T06:43:03,42.805,6.029,0.013,0.009,-0.006,103.0,108.0,101.0,13.3,1505.3,324.8,-0.7,1.9,2470.356,13.33,0.015,55.3
2020-08-10T06:46:03,42.805,6.029,0.013,0.0,-0.026,104.0,109.0,101.0,13.4,1505.3,325.2,-0.7,1.8,2470.344,13.33,0.013,90.0
2020-08-10T06:49:03,42.805,6.029,0.032,0.01,-0.012,104.0,109.0,100.0,13.4,1505.3,323.1,-0.7,1.8,2470.375,13.33,0.033,72.6
2020-08-10T06:52:03,42.805,6.029,0.028,0.003,0.015,103.0,108.0,102.0,13.3,1505.3,327.4,-0.7,1.8,2470.349,13.33,0.028,83.9
2020-08-10T06:55:03,42.805,6.029,0.02,-0.002,0.015,104.0,108.0,101.0,13.4,1505.3,325.1,-0.7,1.8,2470.332,13.32,0.02,95.7
2020-08-10T06:58:03,42.805,6.029,0.028,-0.006,-0.001,103.0,109.0,101.0,13.4,1505.3,323.8,-0.7,1.8,2470.313,13.32,0.028,102.1
2020-08-10T07:04:03,42.805,6.029,0.031,0.0,-0.035,102.0,107.0,102.0,13.4,1505.2,326.1,-0.7,1.8,2470.383,13.3,0.03,90.0
2020-08-10T07:07:03,42.805,6.029,0.019,0.023,0.0,103.0,108.0,102.0,13.4,1505.3,326.3,-0.7,1.8,2470.318,13.31,0.029,39.6
2020-08-10T07:10:03,42.805,6.029,0.022,-0.003,-0.004,102.0,107.0,101.0,13.3,1505.3,326.8,-0.7,1.8,2470.407,13.32,0.022,97.8
2020-08-10T07:13:03,42.805,6.029,0.043,0.005,-0.013,104.0,107.0,101.0,13.4,1505.3,327.0,-0.7,1.8,2470.361,13.32,0.043,83.4
2020-08-10T07:16:03,42.805,6.029,0.012,-0.003,-0.024,103.0,108.0,101.0,13.4,1505.3,326.4,-0.7,1.8,2470.4,13.32,0.012,104.0
2020-08-10T07:19:03,42.805,6.029,0.015,0.009,-0.011,103.0,108.0,101.0,13.4,1505.3,327.7,-0.7,1.8,2470.391,13.32,0.017,59.0
2020-08-10T07:22:03,42.805,6.029,0.029,0.016,0.007,103.0,106.0,100.0,13.4,1505.3,322.9,-0.7,1.8,2470.36,13.32,0.033,61.1
2020-08-10T07:25:03,42.805,6.029,0.033,0.0,-0.008,102.0,107.0,101.0,13.3,1505.3,326.6,-0.7,1.8,2470.356,13.32,0.033,90.0
2020-08-10T07:28:03,42.805,6.029,0.033,0.011,0.033,103.0,107.0,101.0,13.4,1505.3,324.1,-0.7,1.8,2470.361,13.32,0.034,71.6
2020-08-10T07:31:03,42.805,6.029,0.067,0.008,0.011,104.0,106.0,102.0,13.3,1505.3,325.6,-0.7,1.8,2470.355,13.32,0.067,83.2
2020-08-10T07:34:03,42.805,6.029,0.007,0.012,-0.02,103.0,107.0,100.0,13.4,1505.3,324.5,-0.7,1.8,2470.332,13.32,0.013,30.3
2020-08-10T07:37:03,42.805,6.029,0.018,0.005,-0.018,103.0,106.0,101.0,13.4,1505.3,325.7,-0.7,1.8,2470.333,13.32,0.018,74.5
2020-08-10T07:40:03,42.805,6.029,0.027,0.0,-0.021,104.0,106.0,101.0,13.4,1505.3,324.6,-0.7,1.8,2470.38,13.32,0.026,90.0
2020-08-10T07:43:03,42.805,6.029,0.012,0.008,0.005,104.0,106.0,101.0,13.4,1505.3,325.0,-0.7,1.8,2470.347,13.33,0.014,56.3
2020-08-10T07:46:03,42.805,6.029,0.015,-0.004,-0.02,102.0,107.0,101.0,13.3,1505.3,325.2,-0.7,1.8,2470.39,13.33,0.015,104.9
2020-08-10T07:49:03,42.805,6.029,0.011,-0.025,-0.075,102.0,106.0,100.0,13.4,1505.3,324.8,-0.7,1.8,2470.367,13.33,0.027,156.3
2020-08-10T07:52:03,42.805,6.029,0.032,0.003,-0.004,102.0,107.0,102.0,13.4,1505.3,324.8,-0.7,1.8,2470.329,13.33,0.032,84.6
2020-08-10T07:55:03,42.805,6.029,0.039,0.003,-0.01,104.0,106.0,100.0,13.4,1505.3,326.4,-0.7,1.9,2470.36,13.33,0.039,85.6
2020-08-10T07:58:03,42.805,6.029,0.038,0.008,-0.028,103.0,108.0,101.0,13.4,1505.3,323.4,-0.7,1.8,2470.326,13.33,0.038,78.1
2020-08-10T08:04:03,42.805,6.029,0.028,-0.007,-0.022,103.0,107.0,102.0,13.4,1505.3,326.3,-0.7,1.8,2470.4,13.31,0.028,104.0
2020-08-10T08:07:03,42.805,6.029,0.009,-0.025,-0.051,104.0,108.0,101.0,13.4,1505.3,323.6,-0.7,1.8,2470.365,13.31,0.026,160.2
2020-08-10T08:10:03,42.805,6.029,0.01,-0.006,-0.022,103.0,107.0,102.0,13.4,1505.3,326.7,-0.7,1.8,2470.388,13.32,0.011,121.0
2020-08-10T08:13:03,42.805,6.029,0.004,0.008,-0.028,104.0,107.0,101.0,13.4,1505.3,323.8,-0.7,1.9,2470.404,13.32,0.008,26.6
2020-08-10T08:16:03,42.805,6.029,-0.006,0.002,-0.034,103.0,106.0,100.0,13.4,1505.3,326.1,-0.7,1.8,2470.366,13.32,0.006,288.4
2020-08-10T08:19:03,42.805,6.029,-0.012,0.0,-0.043,104.0,106.0,100.0,13.4,1505.3,324.2,-0.7,1.8,2470.346,13.32,0.012,270.0
2020-08-10T08:22:03,42.805,6.029,0.034,0.015,0.022,103.0,109.0,101.0,13.4,1505.3,327.7,-0.7,1.8,2470.406,13.33,0.037,66.2
2020-08-10T08:25:03,42.805,6.029,0.032,0.0,-0.023,104.0,108.0,100.0,13.3,1505.3,326.9,-0.7,1.9,2470.382,13.33,0.032,90.0
2020-08-10T08:28:03,42.805,6.029,0.015,0.001,-0.027,104.0,107.0,100.0,13.4,1505.3,325.9,-0.7,1.8,2470.35,13.33,0.015,86.2
2020-08-10T08:31:03,42.805,6.029,0.01,0.006,-0.039,103.0,106.0,101.0,13.4,1505.3,327.4,-0.7,1.8,2470.398,13.33,0.011,59.0
2020-08-10T08:34:03,42.805,6.029,0.01,-0.028,-0.013,103.0,107.0,101.0,13.4,1505.3,324.1,-0.7,1.9,2470.378,13.33,0.029,160.4
2020-08-10T08:37:03,42.805,6.029,-0.011,-0.012,-0.064,104.0,106.0,100.0,13.4,1505.3,323.3,-0.6,1.8,2470.383,13.33,0.016,222.5
2020-08-10T08:40:03,42.805,6.029,0.007,-0.001,-0.01,103.0,108.0,102.0,13.4,1505.3,324.8,-0.7,1.8,2470.394,13.33,0.007,98.1
2020-08-10T08:43:03,42.805,6.029,0.051,0.006,0.015,103.0,109.0,100.0,13.3,1505.3,325.5,-0.7,1.9,2470.394,13.33,0.051,83.3
2020-08-10T08:46:03,42.805,6.029,0.002,-0.005,-0.029,102.0,107.0,100.0,13.4,1505.3,326.5,-0.8,1.8,2470.395,13.33,0.005,158.2
2020-08-10T08:49:03,42.805,6.029,-0.005,-0.008,-0.026,103.0,107.0,103.0,13.4,1505.3,324.2,-0.7,1.8,2470.406,13.33,0.009,212.0
2020-08-10T08:52:03,42.805,6.029,0.022,-0.011,-0.023,103.0,108.0,101.0,13.3,1505.3,327.7,-0.7,1.8,2470.344,13.33,0.024,116.6
2020-08-10T08:55:03,42.805,6.029,-0.018,0.001,-0.049,103.0,107.0,101.0,13.4,1505.3,323.2,-0.7,1.8,2470.413,13.33,0.018,273.2
2020-08-10T08:58:03,42.805,6.029,0.048,0.005,0.016,103.0,107.0,101.0,13.4,1505.3,326.9,-0.7,1.8,2470.384,13.33,0.048,84.1
2020-08-10T09:04:03,42.805,6.029,0.022,-0.005,-0.003,103.0,107.0,102.0,13.4,1505.3,324.5,-0.7,1.8,2470.45,13.31,0.022,102.8
2020-08-10T09:07:03,42.805,6.029,0.026,-0.004,-0.029,102.0,107.0,101.0,13.4,1505.3,324.0,-0.7,1.9,2470.409,13.32,0.026,98.7
2020-08-10T09:10:03,42.805,6.029,-0.009,-0.008,-0.026,103.0,107.0,101.0,13.4,1505.3,326.3,-0.7,1.8,2470.415,13.32,0.012,228.4
2020-08-10T09:13:03,42.805,6.029,0.049,-0.01,-0.004,104.0,106.0,102.0,13.4,1505.3,326.9,-0.7,1.8,2470.398,13.32,0.05,101.5
2020-08-10T09:16:03,42.805,6.029,0.034,0.0,-0.018,103.0,106.0,101.0,13.4,1505.3,327.9,-0.7,1.8,2470.422,13.33,0.034,90.0
2020-08-10T09:19:03,42.805,6.029,0.021,0.003,0.002,105.0,106.0,101.0,13.4,1505.3,328.0,-0.7,1.8,2470.395,13.33,0.021,81.9
2020-08-10T09:22:03,42.805,6.029,0.029,0.01,0.033,103.0,105.0,102.0,13.4,1505.3,328.2,-0.7,1.8,2470.384,13.33,0.03,71.0
2020-08-10T09:25:03,42.805,6.029,0.032,0.004,-0.039,103.0,105.0,101.0,13.3,1505.3,325.9,-0.7,1.8,2470.375,13.33,0.032,82.9
2020-08-10T09:28:03,42.805,6.029,0.025,0.006,0.016,104.0,105.0,101.0,13.4,1505.3,327.2,-0.7,1.8,2470.438,13.33,0.025,76.5
2020-08-10T09:31:03,42.805,6.029,0.015,0.0,-0.038,104.0,105.0,100.0,13.4,1505.3,322.9,-0.7,1.8,2470.4,13.33,0.015,90.0
2020-08-10T09:34:03,42.805,6.029,0.018,0.004,-0.027,103.0,106.0,101.0,13.4,1505.3,327.5,-0.7,1.8,2470.426,13.33,0.018,77.5
2020-08-10T09:37:03,42.805,6.029,-0.008,-0.015,-0.046,102.0,107.0,101.0,13.3,1505.3,326.6,-0.7,1.8,2470.422,13.33,0.017,208.1
2020-08-10T09:40:03,42.805,6.029,0.017,0.017,-0.024,103.0,105.0,101.0,13.4,1505.3,327.4,-0.7,1.8,2470.408,13.33,0.024,45.0
2020-08-10T09:43:03,42.805,6.029,-0.019,0.0,-0.028,103.0,107.0,101.0,13.4,1505.3,326.7,-0.7,1.8,2470.404,13.33,0.019,270.0
2020-08-10T09:46:03,42.805,6.029,0.014,0.017,-0.002,104.0,104.0,100.0,13.4,1505.3,327.9,-0.7,1.8,2470.419,13.33,0.022,39.5
2020-08-10T09:49:03,42.805,6.029,0.008,-0.013,-0.014,104.0,106.0,100.0,13.4,1505.3,322.8,-0.7,1.8,2470.424,13.33,0.015,148.4
2020-08-10T09:52:03,42.805,6.029,-0.007,-0.003,-0.039,103.0,106.0,100.0,13.4,1505.3,325.3,-0.7,1.8,2470.416,13.33,0.007,246.8
2020-08-10T09:55:03,42.805,6.029,0.017,0.0,-0.012,103.0,105.0,101.0,13.4,1505.3,325.8,-0.7,1.8,2470.395,13.33,0.017,90.0
2020-08-10T09:58:03,42.805,6.029,0.008,0.0,0.007,102.0,106.0,101.0,13.3,1505.3,327.3,-0.7,1.8,2470.406,13.33,0.008,90.0
2020-08-10T10:04:03,42.805,6.029,-0.003,-0.02,-0.047,104.0,106.0,100.0,13.4,1505.3,322.7,-0.7,1.8,2470.466,13.31,0.02,188.5